User: anonymous   Login
Location: Unspecified
(0.0000°N, 0.0000°E)
Time: 07:25:32
(UTC+00:00)
Language:

UFO-8 - Orbit

View from above orbital plane
View from above orbital plane
View from above satellite
View from above satellite

Ground track
Ground track

The orbit data is extracted from the following two-line orbital elements,

1 25258U 98016A   17294.54158645 0.00000000  00000-0  00000-0 0    00
2 25258   7.6530  37.0285 0003205  29.3731 330.6689  1.00270000    00
Epoch (UTC): 21 October 2017 12:59:53
Eccentricity: 0.0003205
inclination: 7.6530°
perigee height: 35773 km
apogee height: 35800 km
right ascension of ascending node: 37.0285°
argument of perigee: 29.3731°
revolutions per day: 1.00270000
mean anomaly at epoch: 330.6689°
orbit number at epoch: 0

The dashed part of the orbit path shows where the satellite is in the earth's shadow,  

DLR